Content
SEND FEEDBACK

Daily
Averages
Monthly
Summary
United States of America

CHAUTAUQUA, NEW YORK


Home > North America > United States > New York
Elevation: 1264 feet     Latitude: 42 17N     Longitude: 079 37W

WEATHER
 
SELECT A DAY
Number of Records: 202,770;   Date Range: 12/11/96 - 7/27/14
 
SHARE

PRINT THIS DATA

[ ← Previous Day ]
WEATHER ALMANAC - JULY 6, 2013
[ Next Day → ]
[ °C ]   °F
Weather ElementAverageHighLow
Temperature75.1 °F80.1 °F (3:53 pm)69.1 °F (1:53 am)
Dewpoint67.8 °F71.1 °F (10:53 pm)66 °F (1:53 am)
Humidity78.7 %91 % (10:53 pm)64 % (5:53 pm)
Barometer30.11 in30.16 in (8:53 am)30.04 in (6:53 pm)
Wind Speed8.7 mph13.8 mph (11:53 am)
Wind Gust18.4 mph (12:53 pm)
Weather ElementAverage
Visibility10 mi
Wind DirectionSSW (213.9 °)

Weather ElementTotal
Precipitation0.01 in
Cooling Degree Days9.6 (Base 65)
Growing Degree Days24.6 (Base 50)
Averaged from 23 records on July 6, 2013
WEATHER CONDITIONS BREAKOUT
WIND DIRECTION BREAKOUT
WEATHER BY HOUR - JULY 6, 2013
[ °C ]   °F
Local TimeTemperatureDewpointHumidityBarometerVisibilityWind DirectionWind SpeedGust SpeedPrecipitationEventsConditions
1:53 AM69.1 °F66.0 °F90 %30.13 in10.0 miSW (220°)5.8 mphClear
2:53 AM69.1 °F66.0 °F90 %30.12 in10.0 miSSW (210°)11.5 mphPartly Cloudy
3:53 AM70.0 °F66.9 °F90 %30.13 in10.0 miSSW (200°)12.7 mphClear
4:53 AM70.0 °F66.9 °F90 %30.14 in10.0 miSSW (210°)10.4 mphClear
5:53 AM70.0 °F66.9 °F90 %30.14 in10.0 miSouth (180°)4.6 mphClear
6:53 AM71.1 °F68.0 °F90 %30.14 in10.0 miSSW (200°)10.4 mphClear
7:53 AM72.0 °F68.0 °F87 %30.15 in10.0 miSSW (210°)10.4 mphClear
8:53 AM73.9 °F68.0 °F82 %30.16 in10.0 miSSW (210°)11.5 mph16.1 mphClear
9:53 AM75.9 °F68.0 °F76 %30.15 in10.0 miSW (230°)5.8 mph0.01 inPartly Cloudy
10:53 AM77.0 °F68.0 °F74 %30.14 in10.0 miWNW (290°)8.1 mphScattered Clouds
11:53 AM78.1 °F68.0 °F71 %30.15 in10.0 miWNW (290°)13.8 mphClear
12:53 PM78.1 °F66.9 °F68 %30.14 in10.0 miWest (280°)12.7 mph18.4 mphClear
1:53 PM78.1 °F68.0 °F71 %30.12 in10.0 miWNW (290°)11.5 mphClear
2:53 PM79.0 °F68.0 °F69 %30.12 in10.0 miWNW (300°)12.7 mphClear
3:53 PM80.1 °F68.0 °F67 %30.10 in10.0 miNW (310°)6.9 mphClear
4:53 PM79.0 °F66.9 °F66 %30.08 in10.0 miWNW (300°)9.2 mphClear
5:53 PM80.1 °F66.9 °F64 %30.06 in10.0 miWNW (300°)5.8 mphClear
6:53 PM79.0 °F66.9 °F66 %30.04 in10.0 miWNW (290°)8.1 mphClear
7:53 PM78.1 °F66.9 °F68 %30.04 in10.0 miVariable3.5 mphClear
8:53 PM75.9 °F68.0 °F76 %30.04 in10.0 miVariable3.5 mphPartly Cloudy
9:53 PM75.0 °F69.1 °F82 %30.06 in10.0 miSSW (200°)6.9 mph0.00 inMostly Cloudy
10:53 PM73.9 °F71.1 °F91 %30.05 in10.0 miSSW (200°)9.2 mph0.00 inOvercast
11:53 PM73.9 °F71.1 °F91 %30.06 in10.0 miVariable4.6 mphOvercast
Hourly data recorded from KDKK, located miles away from Chautauqua, New York







STORIES FROM OUR PARTNERS